Air Resources Laboratory banner image
Air Resources Laboratory web site National Oceanic and Atmospheric Administration (NOAA)

fl roundup


Office: TBW

ASUS42 KTBW 142217
RWRFL
FLORIDA REGIONAL WEATHER ROUNDUP
NATIONAL WEATHER SERVICE TAMPA BAY RUSKIN FL
500 PM EST THU DEC 14 2017

NOTE: "FAIR" INDICATES FEW OR NO CLOUDS BELOW 12,000 FEET WITH NO
SIGNIFICANT WEATHER AND/OR OBSTRUCTIONS TO VISIBILITY.

FLZ001>010-012>015-112-114-115-142300-
PANHANDLE FLORIDA

CITY           SKY/WX    TMP DP  RH WIND       PRES   REMARKS
PENSACOLA      CLOUDY    59  40  49 S5        29.98R
PENSACOLA NAS  CLOUDY    58  41  53 SW7       29.97F
MILTON NAS     CLOUDY    58  39  49 SW5       29.97
CRESTVIEW      CLOUDY    59  39  47 CALM      29.98S
DUKE FIELD     MOCLDY    60  29  30 SW5       29.96F
VALPARAISO     MOCLDY    60  41  51 S5        29.97S
MARY ESTHER    MOCLDY    59  39  46 SW5       29.97R
PANAMA CITY    FAIR      61  29  29 SW5       29.98R
TYNDALL AFB    MOCLDY    62  47  60 NW5       29.99R
APALACHICOLA   CLOUDY    62  56  80 SW5       30.00R

STATION/POSITION SKY/WX   TEMP    WIND        PRES    WAVE   SWELL
                          AIR SEA DIR/SP/G            HT/PER HT/PER
                          (F)     (DEG/KT/KT) (MB)    (FT/S) (FT/S)
29.2N   88.2W              66 70  290/  8/ 10 1015.5
PANAMA CITY BEAC NOT AVBL
TOWER C          NOT AVBL

$$
FLZ011-016>038-118-127-128-134-139-239-142300-
NORTH FLORIDA

CITY           SKY/WX    TMP DP  RH WIND       PRES   REMARKS
MARIANNA       CLOUDY    62  34  35 SW3       29.97R
TALLAHASSEE    CLOUDY    64  39  39 SW3       29.99R
PERRY          PTCLDY    61  43  52 S3        30.00F
LIVE OAK       CLEAR     63  43  48 CALM      30.00S
CROSS CITY     PTCLDY    64  49  58 W5        30.05S
LAKE CITY      MOCLDY    63  43  48 CALM      30.00R
GAINESVILLE    CLOUDY    65  51  60 W5        30.03R
WILLISTON      CLEAR     68  55  64 CALM      30.02R
PALATKA        FAIR      66  55  68 W3        30.01R
MAYPORT NAS    CLOUDY    63  45  51 SW3       29.99R
JACKSONVILLE   CLOUDY    63  39  41 SW5       29.99R
JAX NAS        CLOUDY    67  44  43 W3        30.00R
JAX CECIL      CLEAR     64  50  59 VRB5      29.99R
ST AUGUSTINE   PTCLDY    66  52  60 W5        30.01R
PALM COAST     CLEAR     66  54  63 SW3       29.99S

STATION/POSITION SKY/WX   TEMP    WIND        PRES    WAVE   SWELL
                          AIR SEA DIR/SP/G            HT/PER HT/PER
                          (F)     (DEG/KT/KT) (MB)    (FT/S) (FT/S)
SHELL POINT      NOT AVBL
KEATON BEACH     NOT AVBL
CEDAR KEY        NOT AVBL
FERNANDINA       NOT AVBL
MAYPORT          NOT AVBL
ST AUGUSTINE     NOT AVBL

$$
FLZ040-043>046-052-053-057-058-063-144-142300-
INTERIOR CENTRAL FLORIDA

CITY           SKY/WX    TMP DP  RH WIND       PRES   REMARKS
OCALA          CLOUDY    68  55  63 SW7       30.01R
LEESBURG       CLOUDY    70  57  63 W5        30.01R
SANFORD        PTCLDY    69  53  56 W5        30.00S
ORLANDO EXEC   MOCLDY    71  54  54 W5        30.00S
ORLANDO INTL   CLOUDY    70  51  51 W7        30.00F
KISSIMMEE      CLOUDY    70  53  54 SW6       30.02R
WINTER HAVEN   CLOUDY    70  53  54 W7        30.02S
LAKELAND       MOCLDY    70  52  52 W6        30.02S
BARTOW         MOCLDY    68  52  56 SW9       30.02S
SEBRING        FAIR      72  48  42 SW7       30.02S
OKEECHOBEE     CLEAR     64  52  63 S6        30.03S

$$
FLZ041-047-054-059-064-141-147-142300-
EAST CENTRAL FLORIDA

CITY           SKY/WX    TMP DP  RH WIND       PRES   REMARKS
ORMOND BEACH   PTCLDY    66  55  68 SW6       30.00R
DAYTONA BEACH  MOCLDY    69  54  58 SW10      30.00R
DELAND         PTCLDY    68  54  60 SW5       30.00R
NEW SMYRNA BEA PTCLDY    70  52  52 W6        30.00F
JFK SPACE CTR  LGT RAIN  68  57  68 CALM      29.99S
TITUSVILLE     PTCLDY    72  52  49 SW9       30.01S
CAPE CANAVERAL CLEAR     68  54  60 SW5       29.99S
PATRICK AFB    CLEAR     69  54  57 SW8       30.01R
MELBOURNE      CLEAR     70  52  52 S7        30.02R
VERO BEACH     CLEAR     68  53  58 S7        30.04R
FT PIERCE      CLEAR     67  52  58 SW6       30.04R
STUART         CLEAR     72  50  46 NW6       30.05S

STATION/POSITION SKY/WX   TEMP    WIND        PRES    WAVE   SWELL
                          AIR SEA DIR/SP/G            HT/PER HT/PER
                          (F)     (DEG/KT/KT) (MB)    (FT/S) (FT/S)
28.5N   80.2W              68 75  180/ 12/ 14 1016.1
TRIDENT PIER     NOT AVBL

$$
FLZ050-056-061-142-242-148-248-149-249-151-251-155-255-
160-260-142300-
WEST CENTRAL FLORIDA

CITY           SKY/WX    TMP DP  RH WIND       PRES   REMARKS
CRYSTAL RIVER  FAIR      66  55  68 CALM      30.02R
INVERNESS      FAIR      68  59  73 CALM      30.02R
BROOKSVILLE    CLOUDY    68  54  60 SW6       30.02R
CLEARWATER AIR FAIR      68  54  60 SW5       30.01R
ST PETE CLEARW CLOUDY    68  59  73 S14       30.01S
TAMPA INTL     CLOUDY    68  59  73 S12       30.02S
TAMPA EXEC     CLOUDY    68  55  64 SW10      30.02S
PLANT CITY     CLOUDY    70  54  56 SW7       30.03S
MACDILL AFB    CLOUDY    66  61  82 S13       30.01S
PETER O KNIGHT   N/A     66  61  82 SW9       30.02S
ST PETERSBURG  CLOUDY    67  59  75 S13       29.99F
SARASOTA       PTCLDY    68  58  70 S14       30.00F
VENICE         NOT AVBL

STATION/POSITION SKY/WX   TEMP    WIND        PRES    WAVE   SWELL
                          AIR SEA DIR/SP/G            HT/PER HT/PER
                          (F)     (DEG/KT/KT) (MB)    (FT/S) (FT/S)
CLEARWATER BEACH NOT AVBL
MIDDLE TAMPA BAY NOT AVBL
VENICE           NOT AVBL

$$
FLZ066-069-070-075>078-162-262-165-265-142300-
SOUTHWEST FLORIDA AND KEYS

CITY           SKY/WX    TMP DP  RH WIND       PRES   REMARKS
PUNTA GORDA    CLEAR     69  54  58 SW9       30.05R
FT MYERS       CLEAR     68  54  60 SW6       30.03S
SOUTHWEST INTL CLEAR     67  54  63 W7        30.04R
NAPLES         CLEAR     66  54  65 S7        30.04S
MARCO ISLAND   CLOUDY    67  55  65 SW7       30.06R
IMMOKALEE      FAIR      72  48  43 CALM      30.05R
MARATHON         N/A     66  50  56 SE5       30.05S
KEY WEST NAS   PTCLDY    66  56  70 SE5       30.06S
KEY WEST INTL  CLEAR     66  55  67 E5        30.06S

STATION/POSITION SKY/WX   TEMP    WIND        PRES    WAVE   SWELL
                          AIR SEA DIR/SP/G            HT/PER HT/PER
                          (F)     (DEG/KT/KT) (MB)    (FT/S) (FT/S)
NAPLES           NOT AVBL
DRY TORTUGAS     NOT AVBL
SAND KEY                   66                 1018.3

$$
FLZ067-068-071>074-168-172>174-142300-
SOUTHEAST FLORIDA

CITY           SKY/WX    TMP DP  RH WIND       PRES   REMARKS
W PALM BEACH   PTCLDY    68  31  25 SE7       30.05S
BOCA RATON     CLEAR    N/A N/A N/A E5        30.05R
FT LAUDER-EXEC CLEAR     68  31  25 SW3       30.05R
FT LAUDERDALE  PTCLDY    68  38  33 SE6       30.05R
POMPANO BEACH  PTCLDY    68  36  30 E3        30.05R
PEMBROKE PINES CLEAR     69  37  30 W3        30.06R
OPA LOCKA      CLEAR     68  39  34 NW6       30.05R
MIAMI          PTCLDY    69  46  43 SE5       30.05R
WEST KENDALL   CLEAR     68  46  45 CALM      30.05R
HOMESTEAD      CLEAR     68  53  59 E6        30.04S

STATION/POSITION SKY/WX   TEMP    WIND        PRES    WAVE   SWELL
                          AIR SEA DIR/SP/G            HT/PER HT/PER
                          (F)     (DEG/KT/KT) (MB)    (FT/S) (FT/S)

$$





Office: EYW